Time,TemperatureF,DewpointF,PressureIn,WindDirection,WindDirectionDegrees,WindSpeedMPH,WindSpeedGustMPH,Humidity,HourlyPrecipIn,Conditions,Clouds,dailyrainin,SoftwareType,DateUTC
2013-06-22 00:02:00,70.5,68.0,30.12,SE,126,0.0,0.0,92,0.00,,,0.00,weatherlink.com 1.10,2013-06-22 04:02:00,
2013-06-22 00:17:00,70.6,68.0,30.12,SE,126,0.0,0.0,91,0.00,,,0.00,weatherlink.com 1.10,2013-06-22 04:17:00,
2013-06-22 00:32:00,70.2,68.0,30.13,SE,126,0.0,0.0,91,0.00,,,0.00,weatherlink.com 1.10,2013-06-22 04:32:00,
2013-06-22 00:47:00,69.6,67.0,30.12,SE,125,0.0,0.0,92,0.00,,,0.00,weatherlink.com 1.10,2013-06-22 04:47:00,
2013-06-22 01:17:00,69.1,67.0,30.12,SE,126,0.0,0.0,93,0.00,,,0.00,weatherlink.com 1.10,2013-06-22 05:17:00,
2013-06-22 01:32:00,68.9,67.0,30.11,SE,126,0.0,0.0,93,0.00,,,0.00,weatherlink.com 1.10,2013-06-22 05:32:00,
2013-06-22 01:47:00,68.6,67.0,30.11,SE,126,0.0,0.0,93,0.00,,,0.00,weatherlink.com 1.10,2013-06-22 05:47:00,
2013-06-22 02:03:00,68.3,66.0,30.11,SE,126,0.0,0.0,93,0.00,,,0.00,weatherlink.com 1.10,2013-06-22 06:03:00,
2013-06-22 02:17:00,67.9,66.0,30.10,SE,126,0.0,0.0,93,0.00,,,0.00,weatherlink.com 1.10,2013-06-22 06:17:00,
2013-06-22 02:32:00,67.8,66.0,30.10,SE,126,0.0,0.0,94,0.00,,,0.00,weatherlink.com 1.10,2013-06-22 06:32:00,
2013-06-22 02:47:00,67.6,66.0,30.09,SE,126,0.0,0.0,94,0.00,,,0.00,weatherlink.com 1.10,2013-06-22 06:47:00,
2013-06-22 03:02:00,67.5,66.0,30.09,SE,126,0.0,0.0,94,0.00,,,0.00,weatherlink.com 1.10,2013-06-22 07:02:00,
2013-06-22 03:17:00,67.2,66.0,30.09,SE,125,0.0,0.0,94,0.00,,,0.00,weatherlink.com 1.10,2013-06-22 07:17:00,
2013-06-22 03:32:00,67.1,65.0,30.09,SE,126,0.0,0.0,94,0.00,,,0.00,weatherlink.com 1.10,2013-06-22 07:32:00,
2013-06-22 03:47:00,67.1,65.0,30.09,SE,126,0.0,0.0,94,0.00,,,0.00,weatherlink.com 1.10,2013-06-22 07:47:00,
2013-06-22 04:17:00,67.4,66.0,30.09,SE,125,0.0,0.0,94,0.00,,,0.00,weatherlink.com 1.10,2013-06-22 08:17:00,
2013-06-22 04:32:00,67.5,66.0,30.09,SE,125,0.0,0.0,94,0.00,,,0.00,weatherlink.com 1.10,2013-06-22 08:32:00,
2013-06-22 04:47:00,67.6,66.0,30.09,SE,126,0.0,0.0,94,0.00,,,0.00,weatherlink.com 1.10,2013-06-22 08:47:00,
2013-06-22 05:02:00,67.6,66.0,30.09,SE,125,0.0,0.0,93,0.00,,,0.00,weatherlink.com 1.10,2013-06-22 09:02:00,
2013-06-22 05:17:00,67.2,65.0,30.10,SE,126,0.0,0.0,93,0.00,,,0.00,weatherlink.com 1.10,2013-06-22 09:17:00,
2013-06-22 05:33:00,66.8,65.0,30.10,SE,126,0.0,0.0,94,0.00,,,0.00,weatherlink.com 1.10,2013-06-22 09:33:00,
2013-06-22 05:47:00,66.6,65.0,30.11,SE,126,0.0,0.0,94,0.00,,,0.00,weatherlink.com 1.10,2013-06-22 09:47:00,
2013-06-22 06:03:00,66.7,65.0,30.11,SE,126,0.0,0.0,95,0.00,,,0.00,weatherlink.com 1.10,2013-06-22 10:03:00,
2013-06-22 06:18:00,66.7,65.0,30.11,SE,125,0.0,0.0,94,0.00,,,0.00,weatherlink.com 1.10,2013-06-22 10:18:00,
2013-06-22 06:48:00,66.4,65.0,30.12,ESE,107,0.0,0.0,94,0.00,,,0.00,weatherlink.com 1.10,2013-06-22 10:48:00,
2013-06-22 07:03:00,66.3,65.0,30.12,ESE,108,0.0,0.0,94,0.00,,,0.00,weatherlink.com 1.10,2013-06-22 11:03:00,
2013-06-22 07:18:00,66.4,65.0,30.13,ESE,108,0.0,0.0,94,0.00,,,0.00,weatherlink.com 1.10,2013-06-22 11:18:00,
2013-06-22 07:48:00,67.4,66.0,30.13,ESE,108,0.0,0.0,94,0.00,,,0.00,weatherlink.com 1.10,2013-06-22 11:48:00,
2013-06-22 08:18:00,69.0,67.0,30.15,NW,310,0.0,0.0,93,0.00,,,0.00,weatherlink.com 1.10,2013-06-22 12:18:00,
2013-06-22 08:33:00,71.0,68.0,30.15,NW,310,0.0,1.0,91,0.00,,,0.00,weatherlink.com 1.10,2013-06-22 12:33:00,
2013-06-22 08:48:00,74.0,70.0,30.16,NW,313,0.0,1.0,86,0.00,,,0.00,weatherlink.com 1.10,2013-06-22 12:48:00,
2013-06-22 09:03:00,76.1,70.0,30.16,SW,229,0.0,2.0,82,0.00,,,0.00,weatherlink.com 1.10,2013-06-22 13:03:00,
2013-06-22 09:33:00,78.1,71.0,30.16,South,175,0.0,2.0,78,0.00,,,0.00,weatherlink.com 1.10,2013-06-22 13:33:00,
2013-06-22 10:18:00,79.4,69.0,30.16,NW,311,0.0,4.0,71,0.00,,,0.00,weatherlink.com 1.10,2013-06-22 14:18:00,
2013-06-22 10:33:00,80.3,71.0,30.16,WNW,300,2.0,3.0,72,0.00,,,0.00,weatherlink.com 1.10,2013-06-22 14:33:00,
2013-06-22 11:03:00,80.9,69.0,30.16,ESE,115,0.0,6.0,67,0.00,,,0.00,weatherlink.com 1.10,2013-06-22 15:03:00,
2013-06-22 11:18:00,82.0,70.0,30.16,South,172,0.0,5.0,66,0.00,,,0.00,weatherlink.com 1.10,2013-06-22 15:18:00,
2013-06-22 11:33:00,81.9,69.0,30.16,ESE,123,1.0,4.0,64,0.00,,,0.00,weatherlink.com 1.10,2013-06-22 15:33:00,
2013-06-22 11:48:00,82.8,69.0,30.16,SE,126,2.0,5.0,64,0.00,,,0.00,weatherlink.com 1.10,2013-06-22 15:48:00,
2013-06-22 12:18:00,83.7,68.0,30.16,ENE,72,2.0,8.0,60,0.00,,,0.00,weatherlink.com 1.10,2013-06-22 16:18:00,
2013-06-22 12:33:00,83.9,68.0,30.16,NNE,32,1.0,4.0,59,0.00,,,0.00,weatherlink.com 1.10,2013-06-22 16:33:00,
2013-06-22 12:48:00,84.2,67.0,30.16,East,97,2.0,7.0,56,0.00,,,0.00,weatherlink.com 1.10,2013-06-22 16:48:00,
2013-06-22 13:03:00,82.9,68.0,30.15,SE,134,2.0,2.0,62,0.00,,,0.00,weatherlink.com 1.10,2013-06-22 17:03:00,
2013-06-22 13:18:00,82.4,68.0,30.15,SW,221,0.0,4.0,62,0.00,,,0.00,weatherlink.com 1.10,2013-06-22 17:18:00,
2013-06-22 13:33:00,83.7,69.0,30.15,South,187,3.0,5.0,61,0.00,,,0.00,weatherlink.com 1.10,2013-06-22 17:33:00,
2013-06-22 14:04:00,85.6,66.0,30.13,SE,130,0.0,4.0,53,0.00,,,0.00,weatherlink.com 1.10,2013-06-22 18:04:00,
2013-06-22 14:19:00,85.6,67.0,30.12,NE,56,1.0,6.0,54,0.00,,,0.00,weatherlink.com 1.10,2013-06-22 18:19:00,
2013-06-22 14:34:00,85.7,68.0,30.12,SE,125,0.0,4.0,56,0.00,,,0.00,weatherlink.com 1.10,2013-06-22 18:34:00,
2013-06-22 14:49:00,85.1,68.0,30.11,ENE,68,1.0,4.0,56,0.00,,,0.00,weatherlink.com 1.10,2013-06-22 18:49:00,
2013-06-22 15:04:00,86.1,66.0,30.10,East,92,1.0,4.0,52,0.00,,,0.00,weatherlink.com 1.10,2013-06-22 19:04:00,
2013-06-22 15:19:00,86.2,65.0,30.10,East,86,0.0,4.0,50,0.00,,,0.00,weatherlink.com 1.10,2013-06-22 19:19:00,
2013-06-22 15:34:00,85.7,65.0,30.09,SE,127,2.0,8.0,51,0.00,,,0.00,weatherlink.com 1.10,2013-06-22 19:34:00,
2013-06-22 15:49:00,86.5,67.0,30.09,East,90,1.0,4.0,52,0.00,,,0.00,weatherlink.com 1.10,2013-06-22 19:49:00,
2013-06-22 16:19:00,86.2,65.0,30.08,ESE,109,0.0,9.0,50,0.00,,,0.00,weatherlink.com 1.10,2013-06-22 20:19:00,
2013-06-22 17:04:00,86.0,67.0,30.05,SE,128,1.0,5.0,54,0.00,,,0.00,weatherlink.com 1.10,2013-06-22 21:04:00,
2013-06-22 17:19:00,86.2,66.0,30.05,North,5,0.0,3.0,52,0.00,,,0.00,weatherlink.com 1.10,2013-06-22 21:19:00,
2013-06-22 17:34:00,85.8,67.0,30.05,SE,129,0.0,4.0,54,0.00,,,0.00,weatherlink.com 1.10,2013-06-22 21:34:00,
2013-06-22 17:49:00,85.8,65.0,30.04,SE,132,0.0,3.0,50,0.00,,,0.00,weatherlink.com 1.10,2013-06-22 21:49:00,
2013-06-22 18:04:00,85.9,68.0,30.03,ESE,116,0.0,4.0,56,0.00,,,0.00,weatherlink.com 1.10,2013-06-22 22:04:00,
2013-06-22 18:19:00,85.5,65.0,30.02,SSE,163,0.0,2.0,51,0.00,,,0.00,weatherlink.com 1.10,2013-06-22 22:19:00,
2013-06-22 18:34:00,85.4,65.0,30.02,NW,304,0.0,4.0,51,0.00,,,0.00,weatherlink.com 1.10,2013-06-22 22:34:00,
2013-06-22 18:49:00,85.0,70.0,30.02,NW,304,0.0,1.0,60,0.00,,,0.00,weatherlink.com 1.10,2013-06-22 22:49:00,
2013-06-22 19:04:00,83.4,68.0,30.02,WNW,303,0.0,1.0,61,0.00,,,0.00,weatherlink.com 1.10,2013-06-22 23:04:00,
2013-06-22 19:19:00,82.6,68.0,30.02,WNW,303,0.0,1.0,62,0.00,,,0.00,weatherlink.com 1.10,2013-06-22 23:19:00,
2013-06-22 19:34:00,81.5,68.0,30.02,NW,304,1.0,1.0,63,0.00,,,0.00,weatherlink.com 1.10,2013-06-22 23:34:00,
2013-06-22 20:19:00,78.7,67.0,30.02,NW,313,0.0,1.0,68,0.00,,,0.00,weatherlink.com 1.10,2013-06-23 00:19:00,
2013-06-22 20:34:00,77.8,69.0,30.02,NW,313,0.0,0.0,75,0.00,,,0.00,weatherlink.com 1.10,2013-06-23 00:34:00,
2013-06-22 20:49:00,77.3,70.0,30.03,NW,313,0.0,1.0,77,0.00,,,0.00,weatherlink.com 1.10,2013-06-23 00:49:00,
2013-06-22 21:04:00,76.5,70.0,30.04,NW,313,0.0,0.0,79,0.00,,,0.00,weatherlink.com 1.10,2013-06-23 01:04:00,
2013-06-22 21:19:00,75.5,69.0,30.04,NW,313,0.0,0.0,81,0.00,,,0.00,weatherlink.com 1.10,2013-06-23 01:19:00,
2013-06-22 21:34:00,74.6,69.0,30.05,NW,313,0.0,0.0,83,0.00,,,0.00,weatherlink.com 1.10,2013-06-23 01:34:00,
2013-06-22 21:49:00,73.9,69.0,30.05,NW,313,0.0,0.0,85,0.00,,,0.00,weatherlink.com 1.10,2013-06-23 01:49:00,
2013-06-22 22:04:00,73.4,69.0,30.06,NW,313,0.0,0.0,86,0.00,,,0.00,weatherlink.com 1.10,2013-06-23 02:04:00,
2013-06-22 22:19:00,72.7,68.0,30.07,NW,313,0.0,0.0,86,0.00,,,0.00,weatherlink.com 1.10,2013-06-23 02:19:00,
2013-06-22 22:34:00,72.1,68.0,30.07,NW,313,0.0,0.0,88,0.00,,,0.00,weatherlink.com 1.10,2013-06-23 02:34:00,
2013-06-22 22:49:00,71.8,68.0,30.07,NW,313,0.0,0.0,88,0.00,,,0.00,weatherlink.com 1.10,2013-06-23 02:49:00,
2013-06-22 23:04:00,71.3,68.0,30.08,NW,313,0.0,0.0,88,0.00,,,0.00,weatherlink.com 1.10,2013-06-23 03:04:00,
2013-06-22 23:19:00,71.2,67.0,30.08,NW,313,0.0,0.0,87,0.00,,,0.00,weatherlink.com 1.10,2013-06-23 03:19:00,
2013-06-22 23:34:00,70.6,67.0,30.08,NW,313,0.0,0.0,88,0.00,,,0.00,weatherlink.com 1.10,2013-06-23 03:34:00,
2013-06-22 23:49:00,70.1,67.0,30.08,NW,313,0.0,0.0,89,0.00,,,0.00,weatherlink.com 1.10,2013-06-23 03:49:00,